This is the latest recevied weather packets stored in our database for station/object DN9ID-13. If no packets are shown the sender has not sent any weather packets the latest 10 day(s).
| Time | Temp. | Humidity | Pressure | Rain* | Wind** | Luminosity | Snow |
|---|---|---|---|---|---|---|---|
| 1788573602 | 13.89° C | 87% | 1016.2 hPa | 0 mm | - | - | - |
| 1788572702 | 13.89° C | 88% | 1016 hPa | 0 mm | - | - | - |
| 1788571802 | 13.33° C | 88% | 1015.7 hPa | 0 mm | - | - | - |
| 1788570902 | 13.89° C | 87% | 1015.8 hPa | 0 mm | - | - | - |
| 1788570002 | 14.44° C | 85% | 1015.9 hPa | 0 mm | - | - | - |
| 1788569102 | 14.44° C | 84% | 1015.8 hPa | 0 mm | - | - | - |
| 1788568202 | 15° C | 83% | 1015.9 hPa | 0 mm | - | - | - |
| 1788567302 | 15° C | 82% | 1016.1 hPa | 0 mm | - | - | - |
| 1788566402 | 15.56° C | 81% | 1015.6 hPa | 0 mm | - | - | - |
| 1788565501 | 15.56° C | 80% | 1015.4 hPa | 0 mm | - | - | - |
| 1788564602 | 16.11° C | 79% | 1015.5 hPa | 0 mm | - | - | - |
| 1788563701 | 16.11° C | 80% | 1015.3 hPa | 0 mm | - | - | - |
| 1788562801 | 16.11° C | 80% | 1015.2 hPa | 0 mm | - | - | - |
| 1788561902 | 16.11° C | 79% | 1014.9 hPa | 0 mm | - | - | - |
| 1788561002 | 16.67° C | 80% | 1015.2 hPa | 0 mm | - | - | - |
| 1788560102 | 16.67° C | 83% | 1014.8 hPa | 0 mm | - | - | - |
| 1788559202 | 16.67° C | 81% | 1014.6 hPa | 0 mm | - | - | - |
| 1788558301 | 16.67° C | 81% | 1014.3 hPa | 8.38 mm | - | - | - |
| 1788557402 | 16.67° C | 84% | 1014.2 hPa | 8.38 mm | - | - | - |
| 1788556501 | 16.67° C | 84% | 1013.9 hPa | 8.38 mm | - | - | - |
| 1788555601 | 16.67° C | 84% | 1013.7 hPa | 8.38 mm | - | - | - |
| 1788554702 | 16.67° C | 85% | 1013.7 hPa | 8.38 mm | - | - | - |
| 1788553802 | 16.67° C | 85% | 1013.7 hPa | 8.38 mm | - | - | - |
| 1788552902 | 16.67° C | 84% | 1013.4 hPa | 8.38 mm | - | - | - |
| 1788552002 | 16.67° C | 86% | 1013.3 hPa | 8.38 mm | - | - | - |
* Rain since midnight (hover to see other rain measurements)
** Current wind speed in m/s (hover to see current wind gust speed)